CAPE
60 1007 1480 1247 1485 1331 1292 1349 1662 1588 1558 1115 775 390 66 15 1 0 0 0 0 12 33 40 65 61 64 16 0 0 0 0 0 0 0 0 0 2 2 2 0 0 0
88 882 1264 1235 1013 941 1300 1790 1733 1631 1539 993 522 135 36 4 0 0 0 0 0 58 85 72 72 67 39 0 0 0 0 0 0 0 0 0 0 0 0 0 0 0 3
312 867 555 1228 1164 1104 1328 1355 1495 1388 1214 750 387 107 27 2 0 0 0 0 0 63 87 98 36 1 0 0 0 0 0 0 0 0 0 0 0 0 0 0 0 0 0
638 681 372 1081 1169 1296 1422 1506 1399 1206 845 824 322 80 28 0 0 0 0 0 0 36 25 10 5 2 0 0 1 3 0 0 0 0 0 0 0 3 0 0 0 0 0
642 384 224 882 842 634 850 895 1031 1051 866 619 334 112 29 0 0 0 3 6 6 22 6 1 1 0 1 3 6 4 0 0 0 0 0 0 8 17 2 1 7 0 0
533 262 422 885 764 684 679 541 666 765 934 698 451 129 9 0 1 1 3 2 0 0 0 0 0 0 0 2 6 0 0 0 0 0 0 0 31 31 6 50 41 95 174
504 342 307 957 719 485 417 398 484 364 602 756 361 109 20 0 1 1 1 1 3 1 0 1 8 27 23 5 0 0 0 0 0 0 1 8 4 11 15 0 132 154 128
537 500 416 727 605 493 406 481 453 352 267 730 542 163 62 5 1 0 1 9 13 19 16 39 61 31 0 0 0 0 0 0 0 0 0 0 0 0 0 0 81 49 13
609 625 547 436 372 417 554 516 463 589 706 650 562 437 216 173 47 0 11 21 36 103 88 99 83 0 0 0 0 0 0 0 0 0 0 0 0 0 0 42 54 30 10
738 622 527 470 384 220 337 339 274 397 370 402 345 257 189 175 179 101 77 70 63 133 139 187 11 0 0 0 0 0 0 0 0 0 0 0 0 0 57 62 47 28 17
652 681 575 507 427 221 321 235 233 266 242 240 209 167 115 139 160 115 55 91 125 256 224 95 0 0 0 0 0 0 0 0 0 0 0 0 99 102 49 26 17 10 9
525 389 523 573 484 254 189 281 234 187 210 211 210 237 203 220 253 182 83 113 168 245 177 11 0 0 0 0 0 0 0 0 0 0 0 36 61 44 18 4 1 0 0
378 247 411 315 501 456 214 210 237 224 210 255 252 222 159 153 222 283 226 240 187 39 0 0 0 0 0 0 0 0 0 0 0 0 15 56 30 19 2 0 0 0 0
493 391 308 233 237 343 469 226 154 172 189 194 207 188 90 160 217 288 244 236 169 68 0 0 0 0 0 0 0 0 0 0 0 0 0 5 3 0 0 0 0 0 0
542 533 426 317 306 346 278 375 191 126 168 176 149 130 51 146 226 225 202 156 111 8 0 0 0 0 0 0 0 0 0 0 0 0 0 0 0 0 0 0 0 0 0
915 805 564 430 455 401 324 294 281 157 103 125 121 105 47 75 199 178 134 101 50 0 0 0 0 0 0 0 0 0 0 0 0 0 0 0 0 0 0 0 0 0 0
303 844 846 674 510 484 409 272 275 218 115 92 76 70 49 7 93 148 116 65 30 0 0 0 0 0 0 0 0 0 0 0 0 0 0 0 0 0 0 0 0 0 0
0 12 737 820 729 598 526 365 261 241 179 107 55 23 28 13 0 50 80 56 2 0 0 0 0 0 0 0 0 0 0 0 0 0 0 0 0 0 0 0 0 0 0
0 0 0 628 988 863 620 509 297 188 291 229 53 19 0 0 0 0 1 19 0 0 0 0 0 0 0 0 0 0 0 0 0 0 0 0 0 0 0 0 0 0 0
0 0 0 0 548 1089 939 448 376 232 163 262 88 31 0 0 0 0 0 0 0 0 0 0 0 0 0 0 0 0 0 0 0 0 0 0 0 0 0 0 0 0 0
0 0 0 0 0 759 901 665 490 512 237 114 139 55 7 6 0 0 0 0 0 0 0 0 0 0 0 0 0 0 0 0 0 0 0 0 0 0 0 0 0 0 0
0 0 0 0 0 0 658 708 536 503 401 294 118 86 7 0 0 0 0 0 0 0 0 0 0 0 0 0 0 0 0 0 0 0 0 0 0 0 0 0 0 0 0
0 0 0 0 0 0 41 734 228 18 1 220 57 118 70 21 0 0 0 0 0 0 0 0 0 0 0 0 0 0 0 0 0 0 0 0 0 0 0 0 0 0 0
0 0 0 0 0 0 3 420 433 144 152 228 302 309 264 21 1 0 0 0 0 0 0 0 0 0 0 0 0 0 0 0 0 0 0 0 0 0 0 0 0 0 0
0 0 0 0 0 0 0 220 572 444 499 564 355 327 195 1 0 0 0 0 0 0 0 0 0 0 0 0 0 0 0 0 0 0 0 0 0 0 0 0 0 0 0
0 0 0 0 0 0 0 0 280 500 479 491 188 291 200 1 1 0 0 0 0 0 0 0 0 0 0 0 0 0 0 0 0 0 0 0 0 0 0 0 0 0 0
CIN
-416 -171 -118 -132 -83 -75 -62 -40 -13 -3 -0 -1 -5 -28 -69 -5 -1 -0 -2 -3 -0 -0 -6 -3 -0 -0 -1 -0 -0 -0 -0 -0 -0 -0 -0 -0 -0 -0 -0 -0 -0 -0 -0
-404 -199 -135 -123 -130 -104 -63 -22 -14 -9 -2 -10 -31 -98 -73 -0 -0 -0 -0 -0 -0 -0 -0 -0 -0 -0 -0 -0 -0 -0 -0 -0 -0 -0 -0 -0 -0 -0 -0 -0 -0 -0 -1
-335 -196 -216 -119 -114 -100 -66 -50 -26 -20 -15 -30 -45 -75 -100 -0 -0 -0 -0 -0 -0 -1 -17 -14 -1 -0 -0 -0 -0 -0 -0 -0 -0 -0 -0 -0 -0 -0 -0 -0 -0 -0 -0
-242 -209 -245 -135 -106 -85 -53 -48 -42 -41 -60 -38 -60 -93 -117 -0 -0 -0 -0 -0 -0 -1 -2 -5 -1 -0 -0 -0 -0 -0 -0 -0 -0 -0 -0 -0 -0 -0 -0 -0 -0 -0 -0
-235 -266 -277 -157 -149 -156 -109 -97 -76 -63 -63 -67 -75 -100 -137 -0 -0 -0 -0 -0 -0 -8 -8 -0 -0 -0 -0 -0 -0 -0 -0 -0 -0 -0 -0 -0 -0 -0 -0 -0 -1 -0 -0
-241 -293 -243 -165 -167 -157 -123 -134 -112 -82 -58 -67 -76 -114 -149 -0 -0 -0 -0 -0 -0 -0 -0 -0 -0 -0 -0 -0 -0 -0 -0 -0 -0 -0 -0 -0 -0 -0 -0 -137 -139 -82 -48
-240 -262 -268 -141 -170 -189 -176 -168 -139 -138 -95 -74 -97 -133 -160 -0 -0 -0 -0 -0 -0 -0 -0 -0 -0 -17 -0 -0 -0 -0 -0 -0 -0 -0 -1 -2 -1 -0 -0 -0 -93 -85 -81
-217 -200 -222 -164 -174 -179 -188 -167 -157 -159 -160 -78 -83 -139 -172 -63 -0 -0 -0 -96 -88 -67 -59 -88 -60 -24 -0 -0 -0 -0 -0 -0 -0 -0 -0 -0 -0 -0 -0 -0 -142 -121 -0
-167 -161 -170 -191 -202 -182 -150 -163 -170 -133 -98 -103 -102 -98 -121 -131 -193 -0 -187 -185 -136 -70 -68 -53 -56 -0 -0 -0 -0 -0 -0 -0 -0 -0 -0 -0 -0 -0 -0 -136 -34 -0 -0
-136 -138 -147 -151 -176 -251 -192 -200 -214 -169 -170 -143 -153 -160 -171 -156 -131 -154 -142 -136 -131 -87 -77 -54 -138 -0 -0 -0 -0 -0 -0 -0 -0 -0 -0 -0 -0 -0 -89 -178 -0 -0 -0
-147 -134 -138 -140 -152 -225 -180 -212 -230 -215 -217 -202 -210 -221 -239 -196 -162 -163 -197 -144 -113 -65 -68 -103 -0 -0 -0 -0 -0 -0 -0 -0 -0 -0 -0 -0 -103 -123 -0 -0 -0 -1 -7
-170 -184 -138 -117 -125 -188 -230 -193 -211 -261 -248 -232 -209 -190 -197 -174 -139 -149 -202 -168 -118 -78 -92 -131 -0 -0 -0 -0 -0 -0 -0 -0 -0 -0 -0 -85 -80 -0 -0 -0 -0 -0 -0
-170 -195 -158 -174 -126 -126 -197 -205 -195 -226 -256 -210 -194 -208 -229 -212 -159 -126 -139 -115 -129 -239 -29 -0 -0 -0 -0 -0 -0 -0 -0 -0 -0 -0 -2 -21 -2 -2 -2 -1 -0 -0 -0
-134 -158 -165 -179 -167 -144 -108 -196 -252 -253 -233 -250 -240 -233 -317 -215 -157 -117 -126 -122 -146 -216 -0 -0 -0 -0 -0 -0 -0 -0 -0 -0 -0 -0 -0 -13 -5 -0 -0 -0 -0 -0 -0
-118 -130 -150 -156 -161 -147 -155 -124 -202 -271 -233 -223 -246 -263 -357 -227 -138 -122 -128 -151 -184 -302 -0 -0 -0 -0 -0 -0 -0 -0 -0 -0 -0 -0 -0 -0 -0 -0 -0 -0 -0 -0 -0
-79 -91 -103 -134 -130 -136 -161 -146 -153 -196 -265 -240 -248 -265 -337 -278 -143 -143 -161 -185 -227 -0 -0 -0 -0 -0 -0 -0 -0 -0 -0 -0 -0 -0 -0 -0 -0 -0 -0 -0 -0 -0 -0
-188 -97 -100 -101 -100 -105 -135 -171 -169 -179 -236 -280 -295 -266 -290 -370 -218 -147 -153 -212 -255 -0 -0 -0 -0 -0 -0 -0 -0 -0 -0 -0 -0 -0 -0 -0 -0 -0 -0 -0 -0 -0 -0
-0 -142 -121 -100 -100 -111 -116 -149 -177 -173 -185 -236 -315 -327 -279 -301 -0 -230 -178 -216 -57 -0 -0 -0 -0 -0 -0 -0 -0 -0 -0 -0 -0 -0 -0 -0 -0 -0 -0 -0 -0 -0 -0
-0 -0 -0 -111 -83 -98 -130 -132 -158 -193 -150 -170 -265 -319 -0 -0 -0 -0 -40 -226 -0 -0 -0 -0 -0 -0 -0 -0 -0 -0 -0 -0 -0 -0 -0 -0 -0 -0 -0 -0 -0 -0 -0
-0 -0 -0 -0 -128 -85 -78 -116 -113 -141 -191 -158 -240 -295 -0 -0 -0 -0 -0 -0 -0 -0 -0 -0 -0 -0 -0 -0 -0 -0 -0 -0 -0 -0 -0 -0 -0 -0 -0 -0 -0 -0 -0
-0 -0 -0 -0 -0 -84 -69 -68 -95 -113 -192 -249 -264 -290 -402 -365 -0 -0 -0 -0 -0 -0 -0 -0 -0 -0 -0 -0 -0 -0 -0 -0 -0 -0 -0 -0 -0 -0 -0 -0 -0 -0 -0
-0 -0 -0 -0 -0 -0 -78 -79 -89 -118 -133 -192 -244 -257 -344 -0 -0 -0 -0 -0 -0 -0 -0 -0 -0 -0 -0 -0 -0 -0 -0 -0 -0 -0 -0 -0 -0 -0 -0 -0 -0 -0 -0
-0 -0 -0 -0 -0 -0 -202 -53 -108 -181 -13 -125 -211 -235 -309 -398 -0 -0 -0 -0 -0 -0 -0 -0 -0 -0 -0 -0 -0 -0 -0 -0 -0 -0 -0 -0 -0 -0 -0 -0 -0 -0 -0
-0 -0 -0 -0 -0 -0 -10 -52 -47 -82 -90 -126 -155 -216 -220 -337 -111 -0 -0 -0 -0 -0 -0 -0 -0 -0 -0 -0 -0 -0 -0 -0 -0 -0 -0 -0 -0 -0 -0 -0 -0 -0 -0
-0 -0 -0 -0 -0 -0 -0 -65 -64 -73 -74 -75 -102 -118 -158 -0 -0 -0 -0 -0 -0 -0 -0 -0 -0 -0 -0 -0 -0 -0 -0 -0 -0 -0 -0 -0 -0 -0 -0 -0 -0 -0 -0
-0 -0 -0 -0 -0 -0 -0 -0 -28 -33 -72 -65 -116 -110 -142 -0 -0 -0 -0 -0 -0 -0 -0 -0 -0 -0 -0 -0 -0 -0 -0 -0 -0 -0 -0 -0 -0 -0 -0 -0 -0 -0 -0
Wind_Speed
7 11 14 13 15 14 14 13 14 13 14 15 15 13 12 11 10 10 9 8 6 5 5 9 12 12 12 11 10 10 11 11 12 12 12 11 11 11 11 11 6 5 6
11 12 14 14 13 13 13 12 13 13 13 16 17 12 10 10 9 9 9 8 6 5 8 9 12 13 14 10 10 11 12 11 10 11 10 9 9 10 9 7 6 7 8
15 13 15 14 13 13 11 12 12 13 13 14 15 14 10 9 9 9 9 8 7 11 15 16 15 13 12 10 11 11 11 10 9 9 8 7 8 8 7 6 5 5 5
14 12 13 13 13 13 10 12 13 14 13 13 12 12 11 9 9 9 9 9 8 11 14 13 11 10 10 10 10 10 9 8 8 6 5 6 6 8 6 5 4 3 4
14 13 13 13 12 12 10 10 12 12 15 15 14 12 11 10 10 10 10 10 9 11 12 8 9 10 10 8 8 8 7 7 7 5 6 5 4 5 6 5 2 1 2
12 13 14 13 14 12 11 9 10 11 13 15 15 13 12 11 11 11 11 11 9 9 8 8 9 9 9 8 8 7 7 6 4 5 5 5 4 3 7 8 9 8 12
12 12 14 14 14 13 13 11 10 10 9 13 16 14 12 11 11 11 11 11 10 9 9 9 9 10 9 8 7 8 9 8 6 5 5 4 4 7 8 8 10 12 16
12 11 11 13 13 12 12 12 12 12 12 12 15 13 12 11 11 11 10 9 8 8 9 9 9 10 9 8 7 8 9 8 6 6 5 3 6 5 6 7 10 13 14
11 10 9 11 11 11 12 11 9 9 12 12 12 12 12 11 10 10 9 8 7 7 8 7 10 9 9 9 8 9 9 8 6 4 4 2 6 5 5 7 13 14 13
11 11 10 10 10 10 11 11 10 10 10 10 9 9 10 11 10 9 8 6 6 5 4 10 9 10 9 10 10 10 9 7 5 4 2 2 3 4 9 13 15 15 14
9 11 9 10 10 9 9 9 11 10 10 10 8 8 9 8 9 10 7 6 5 5 8 8 9 10 11 10 9 8 5 3 3 2 1 4 11 15 14 14 13 13 14
11 12 11 10 10 9 7 9 9 10 8 9 9 8 5 6 6 8 7 8 6 8 7 8 9 9 6 3 3 5 3 3 3 2 1 1 13 15 14 13 13 14 13
11 10 11 12 10 10 8 7 5 4 4 6 10 8 6 5 5 6 5 5 5 6 4 6 4 3 5 3 3 3 3 3 3 2 4 8 10 11 12 12 11 12 11
10 10 11 13 11 11 7 7 7 6 6 6 7 10 6 4 5 6 5 6 5 4 6 4 3 4 5 5 5 5 4 3 3 3 6 11 13 12 11 10 9 9 9
10 10 11 11 11 9 10 8 7 8 8 9 7 8 6 6 6 7 6 5 5 5 5 5 5 4 4 5 4 4 5 5 5 3 4 10 10 11 10 9 8 8 8
13 14 11 13 11 10 10 10 8 9 9 9 8 9 10 7 7 8 7 6 6 5 5 5 5 4 4 4 4 4 5 5 5 5 4 6 9 9 8 8 8 7 7
12 14 17 15 12 12 12 11 9 9 9 9 9 11 12 11 10 10 8 7 7 6 6 5 5 4 4 4 5 4 4 5 5 5 4 5 6 8 7 8 7 7 6
8 12 14 13 16 14 12 10 8 9 9 10 10 10 14 13 12 10 8 8 7 6 6 6 6 5 4 4 4 4 4 4 5 5 4 4 4 4 6 7 7 6 6
12 11 12 14 17 18 15 10 10 9 10 9 9 10 14 14 14 11 9 8 9 7 7 7 4 4 5 4 4 3 3 4 5 4 6 5 5 4 4 8 7 6 5
10 10 11 10 15 16 11 9 6 7 9 8 10 11 14 13 15 12 9 10 9 8 7 7 7 3 3 5 5 3 2 2 4 4 5 4 4 5 4 4 3 3 5
9 8 11 10 14 10 9 8 8 10 10 9 10 15 16 14 15 14 9 11 10 10 11 11 6 5 3 5 5 3 2 2 5 4 4 5 5 5 5 3 2 1 2
9 8 9 10 11 11 9 10 10 10 9 12 8 12 14 16 16 14 14 12 13 10 11 12 6 4 3 8 4 3 4 3 4 4 4 5 6 5 5 4 4 2 1
7 8 9 10 11 11 13 9 5 1 2 5 7 11 14 16 16 16 15 13 13 12 11 13 12 11 7 7 6 3 4 5 3 3 5 4 6 5 5 5 4 3 3
7 7 8 9 10 10 13 12 15 12 13 11 12 11 10 15 16 16 16 15 14 11 13 14 12 11 8 8 4 4 1 2 4 4 3 4 5 7 7 4 4 4 4
8 7 5 6 7 8 8 13 12 14 11 9 8 11 11 11 15 16 17 17 15 12 12 11 13 12 8 7 5 5 2 1 2 2 4 5 4 6 6 5 4 4 4
6 6 6 5 3 4 6 8 13 14 13 9 9 9 9 9 10 14 15 15 15 13 13 12 11 13 10 5 3 5 5 5 5 4 3 3 4 5 5 5 5 5 5
Wind_Direction
179 166 157 151 148 147 144 152 147 146 141 131 123 122 119 122 120 115 112 105 104 96 135 145 123 108 96 89 81 81 84 84 82 79 72 74 82 84 80 88 72 75 75
158 169 149 151 145 148 149 148 140 141 136 132 127 126 129 122 112 107 109 111 116 61 162 137 116 99 91 83 82 85 86 84 84 80 71 61 70 79 81 76 66 79 60
156 162 153 154 152 157 154 143 138 136 138 131 134 132 131 121 110 106 112 114 117 86 83 96 91 87 89 87 92 92 89 85 85 86 76 74 71 71 74 76 72 69 58
150 156 153 153 153 150 154 147 149 155 143 134 141 140 132 121 113 112 114 119 121 95 92 84 92 95 95 101 105 98 89 83 86 95 96 78 68 77 77 60 44 34 30
153 154 152 153 147 156 147 145 147 151 151 149 146 141 133 126 124 121 119 114 108 79 86 98 96 92 92 98 100 90 78 78 84 102 89 66 50 53 69 52 7 13 317
149 152 156 151 154 161 158 159 154 156 165 154 147 143 139 136 133 129 123 119 116 110 116 113 107 105 105 106 97 89 78 79 106 98 93 61 22 63 62 56 42 51 51
154 158 160 156 153 158 162 163 165 163 168 158 147 147 146 142 138 134 131 129 128 125 121 117 114 108 93 87 86 84 78 81 104 101 96 59 19 56 58 49 68 73 65
156 162 161 153 154 167 164 166 173 184 176 165 153 154 152 148 142 138 137 135 131 132 130 126 121 103 101 96 93 94 96 96 102 96 82 51 358 66 61 59 75 73 63
156 160 160 161 165 168 163 157 159 150 147 153 157 160 155 147 147 144 142 140 139 135 133 132 108 103 94 94 90 98 98 89 100 91 88 56 339 73 71 92 86 76 69
161 166 171 172 175 174 172 160 161 160 160 157 163 165 156 148 148 150 146 149 142 132 136 120 113 102 88 93 92 96 96 89 87 84 67 30 323 91 99 95 88 81 73
173 178 176 179 184 179 178 174 166 163 163 164 162 162 155 170 167 160 153 155 137 130 112 109 109 100 89 80 82 95 96 85 93 85 77 333 96 88 90 83 80 79 70
183 190 191 189 189 186 183 182 183 177 179 175 174 169 163 166 170 169 164 154 142 122 113 118 103 97 94 93 88 81 74 87 73 47 115 117 109 100 94 87 81 77 77
190 197 200 201 197 196 195 186 189 184 176 180 176 176 180 177 183 180 166 165 157 130 122 115 116 103 108 108 98 99 98 91 80 62 109 126 124 83 75 73 75 81 82
200 201 205 207 206 201 203 196 195 189 192 195 191 183 177 181 186 185 180 174 169 162 148 146 140 127 116 114 114 115 115 111 93 77 87 78 90 99 95 94 90 88 85
219 207 204 204 209 197 206 204 201 202 201 204 198 192 186 185 186 180 183 181 178 167 164 157 155 145 135 123 113 122 122 112 100 87 95 83 100 107 106 101 93 92 87
216 218 210 215 203 199 200 205 210 208 207 203 200 199 197 194 188 187 185 185 185 181 167 167 163 158 137 133 121 122 129 129 120 110 103 102 91 107 111 105 97 97 86
218 213 210 210 207 209 201 205 204 209 205 206 206 203 200 200 199 193 193 187 188 177 165 155 146 143 139 126 128 132 146 144 135 129 118 112 106 92 118 108 100 95 79
245 218 217 207 211 207 208 204 206 210 208 206 203 203 206 206 204 200 198 196 184 173 171 167 162 153 157 155 151 146 161 166 155 144 136 125 110 105 96 105 97 87 78
243 242 230 217 213 214 212 204 206 205 209 211 201 204 205 204 205 204 202 199 180 178 181 170 164 168 170 156 148 148 149 175 172 161 153 143 129 131 123 100 90 81 76
233 237 236 220 222 213 216 214 206 212 216 206 206 205 199 201 200 201 202 198 182 179 181 178 169 147 157 150 139 128 134 176 185 184 171 162 155 151 144 136 128 86 59
258 243 233 224 223 214 201 201 209 212 212 210 210 207 200 200 197 196 198 197 186 187 186 183 154 164 145 155 136 125 108 157 194 192 184 178 174 171 167 151 134 123 79
269 249 249 233 234 214 210 209 212 216 220 224 214 208 206 198 191 193 192 193 187 183 182 179 165 149 135 181 158 129 181 181 207 202 200 196 189 174 170 163 147 124 85
288 271 256 244 234 228 217 209 193 211 209 203 209 215 209 201 194 193 195 190 191 187 186 182 183 173 162 191 213 165 155 214 157 170 208 207 195 188 177 169 161 139 120
327 296 273 258 242 226 214 209 208 218 225 223 221 221 210 205 196 200 193 189 192 194 195 193 188 188 154 167 188 223 312 127 174 174 204 212 206 200 192 184 172 151 140
330 336 319 282 251 248 230 222 212 214 221 219 212 213 210 207 209 202 195 190 190 197 204 197 180 190 190 160 165 153 160 177 167 159 170 184 212 209 199 195 180 166 149
331 347 348 350 321 274 248 247 241 236 230 217 210 210 207 199 199 204 206 197 194 195 194 188 194 195 189 161 149 169 161 165 187 167 163 167 194 186 203 201 194 183 169